DW7229 Weather Reports


time (UTC)temp
F
wind
direction
speed
knots
gust
knots
rain 1hr
in
rain 24hr
in
rain mn
in
humidity
%
barometer
mb
20260503022518 47 0.0 0.0 0.00 0.00 0.00 81 1010.2
20260503021521 47 0.0 0.0 0.00 0.00 0.00 81 1010.3
20260503020525 47 0.0 0.0 0.00 0.00 0.00 81 1010.4
20260503015528 48 0.0 0.0 0.00 0.00 0.00 81 1010.2
20260503014532 48 0.0 0.0 0.00 0.00 0.00 81 1010.1
20260503013517 48 0.0 0.0 0.00 0.00 0.00 80 1010.2
20260503012520 48 0.0 0.0 0.00 0.00 0.00 79 1010.3
20260503011524 48 0.0 0.0 0.00 0.00 0.00 78 1010.5
20260503010527 48 0.0 0.0 0.00 0.00 0.00 78 1010.6
20260503005524 48 0.0 0.0 0.00 0.00 0.00 78 1010.5
20260503004515 49 0.0 0.0 0.00 0.00 0.00 78 1010.4
20260503003519 49 0.0 0.0 0.00 0.00 0.00 78 1010.5
20260503002516 49 0.0 0.0 0.00 0.00 0.00 78 1010.6
20260503001546 49 0.0 0.0 0.00 0.00 0.00 78 1010.5
20260503000529 50 0.0 0.0 0.00 0.00 0.00 78 1010.3
20260502235532 50 0.0 0.0 0.00 0.00 0.00 78 1010.1
20260502234538 50 0.0 0.0 0.00 0.00 0.00 78 1010.2
20260502233521 50 0.0 0.0 0.00 0.00 0.00 78 1010.1
20260502232524 50 0.0 0.0 0.00 0.00 0.00 78 1009.8
20260502231527 51 0.0 0.0 0.00 0.00 0.00 78 1009.7
20260502230530 51 0.0 0.0 0.00 0.00 0.00 78 1009.7
20260502225515 51 0.0 0.0 0.00 0.00 0.00 78 1009.8
20260502224559 50 0.0 0.0 0.00 0.00 0.00 78 1009.6
20260502223522 50 0.0 0.0 0.00 0.00 0.00 77 1009.7
20260502222525 50 0.0 0.0 0.00 0.00 0.00 77 1009.9
20260502221528 50 0.0 0.0 0.00 0.00 0.00 77 1009.8
20260502220552 51 0.0 0.0 0.00 0.00 0.00 76 1009.8
20260502215517 51 0.0 0.0 0.00 0.00 0.00 75 1010.0
20260502214521 51 0.0 0.0 0.00 0.00 0.00 72 1009.7
20260502213544 52 0.0 0.0 0.00 0.00 0.00 71 1009.6
20260502212527 52 0.0 0.0 0.00 0.00 0.00 70 1009.6
20260502211525 52 0.0 0.0 0.00 0.00 0.00 69 1009.5
20260502210516 52 0.0 0.0 0.00 0.00 0.00 69 1009.6
20260502205539 52 0.0 0.0 0.00 0.00 0.00 68 1009.8
20260502204536 53 0.0 0.0 0.00 0.00 0.00 67 1009.7
20260502203526 53 0.0 0.0 0.00 0.00 0.00 67 1009.6
20260502202529 53 0.0 1.7 0.00 0.00 0.00 66 1009.7
20260502201532 53 0 0.0 0.9 0.00 0.00 0.00 66 1009.7
20260502200518 53 287 0.9 3.5 0.00 0.00 0.00 65 1009.8
20260502195541 55 225 0.9 3.5 0.00 0.00 0.00 62 1009.8
20260502194524 57 309 0.9 4.3 0.00 0.00 0.00 54 1009.7
20260502193527 57 275 0.9 5.2 0.00 0.00 0.00 51 1009.6
20260502192531 57 176 0.9 4.3 0.00 0.00 0.00 52 1009.6
20260502191516 57 270 0.9 7.0 0.00 0.00 0.00 53 1009.5
20260502190519 58 296 0.9 3.5 0.00 0.00 0.00 52 1009.5
20260502185523 59 186 0.9 3.5 0.00 0.00 0.00 53 1009.8
20260502184546 58 211 0.9 4.3 0.00 0.00 0.00 54 1009.9
20260502183529 58 167 1.7 6.1 0.00 0.00 0.00 55 1010.0
20260502182553 58 192 2.6 7.0 0.00 0.00 0.00 54 1010.0
20260502181518 58 161 0.9 3.5 0.00 0.00 0.00 54 1010.1
20260502180521 57 129 0.9 4.3 0.00 0.00 0.00 56 1010.2
20260502170517 57 201 0.9 2.6 0.00 0.00 0.00 57 1010.7
20260502163515 54 0.0 0.9 0.00 0.00 0.00 66 1011.2
20260502162518 54 0.0 0.0 0.00 0.00 0.00 67 1011.2
20260502161521 54 0.0 0.9 0.00 0.00 0.00 63 1011.2
20260502160525 55 189 0.9 2.6 0.00 0.00 0.00 62 1011.1
20260502151523 52 0.0 0.0 0.00 0.00 0.00 75 1011.4
20260502150526 51 0.0 0.0 0.00 0.00 0.00 76 1011.4
20260502130530 44 0.0 0.0 0.00 0.00 0.00 77 1012.2
20260502123521 45 0.0 0.0 0.00 0.00 0.00 77 1012.1
20260502122524 44 0.0 0.0 0.00 0.00 0.00 76 1012.1
20260502121528 44 0.0 0.0 0.00 0.00 0.00 76 1012.3
20260502120531 44 0.0 0.0 0.00 0.00 0.00 76 1012.5
20260502115516 44 0.0 0.0 0.00 0.00 0.00 75 1012.4
20260502114519 45 0.0 0.0 0.00 0.00 0.00 75 1011.6
20260502113523 45 0.0 0.0 0.00 0.00 0.00 74 1011.3
20260502112526 45 0.0 0.0 0.00 0.00 0.00 75 1011.3
20260502111530 45 0.0 0.0 0.00 0.00 0.00 75 1011.2
20260502110515 44 0.0 0.0 0.00 0.00 0.00 75 1011.1
20260502105518 44 0.0 0.0 0.00 0.00 0.00 75 1011.1
20260502104521 44 0.0 0.0 0.00 0.00 0.00 75 1011.1
20260502103524 44 0.0 0.0 0.00 0.00 0.00 75 1011.1
20260502102528 44 0.0 0.0 0.00 0.00 0.00 73 1011.3
20260502101525 44 0.0 0.0 0.00 0.00 0.00 71 1011.1
20260502100536 44 0.0 0.0 0.00 0.00 0.00 71 1010.9
20260502090518 45 0.0 0.0 0.00 0.00 0.00 63 1010.8
20260502070522 45 0.0 0.0 0.00 0.00 0.00 68 1011.0
20260502065525 44 0.0 0.0 0.00 0.00 0.00 68 1011.0
20260502064528 44 0.0 0.0 0.00 0.00 0.00 69 1011.1
20260502063526 43 0.0 0.0 0.00 0.00 0.00 68 1011.2
20260502062517 43 0.0 0.0 0.00 0.00 0.00 68 1011.1
20260502061520 43 0.0 0.0 0.00 0.00 0.00 68 1011.1
20260502060517 43 0.0 0.0 0.00 0.00 0.00 68 1011.0
20260502055527 43 0.0 0.0 0.00 0.00 0.00 67 1011.0
20260502054550 43 0.0 0.0 0.00 0.00 0.00 66 1011.2
20260502053515 43 0.0 0.0 0.00 0.00 0.00 66 1011.3
20260502052539 44 0.0 0.0 0.00 0.00 0.00 66 1011.1
20260502051522 44 0.0 0.0 0.00 0.00 0.00 67 1011.4
20260502050525 45 0.0 0.0 0.00 0.00 0.00 66 1011.6
20260502045528 45 0.0 0.0 0.00 0.00 0.00 66 1011.5
20260502044612 44 0.0 0.0 0.00 0.00 0.00 66 1011.4
20260502043537 44 0.0 0.0 0.00 0.00 0.00 65 1011.4
20260502042520 44 0.0 0.0 0.00 0.00 0.00 65 1011.4
20260502041523 44 0.0 0.0 0.00 0.00 0.00 65 1011.3
20260502040527 44 0.0 0.0 0.00 0.00 0.00 65 1011.3
20260502035530 44 0.0 0.0 0.00 0.00 0.00 66 1011.2
20260502034535 44 0.0 0.0 0.00 0.00 0.00 63 1011.1
20260502033519 43 0.0 0.0 0.00 0.00 0.00 63 1011.0
20260502032522 43 0.0 0.0 0.00 0.00 0.00 63 1011.1
20260502031545 43 0.0 0.0 0.00 0.00 0.00 64 1011.1
20260502030529 43 0.0 0.0 0.00 0.00 0.00 63 1011.2
20260502025546 43 0.0 0.0 0.00 0.00 0.00 63 1011.1
20260502024517 43 0.0 0.0 0.00 0.00 0.00 62 1011.1
20260502023520 43 0.0 0.0 0.00 0.00 0.00 61 1011.0